KONPKCVO

Guest
Details From KONP - Newport Muni
To KCVO - Corvallis Muni
Flight Number -
Tags Routegen Generated
Created
Modified
Stats Distance 48 nm / 88 km
Max Altitude 100 ft / 30 m
Waypoints 5
Social Downloads 0
Likes 0
Share VATSIM

Download

Looking for another format? Having issues loading an existing format? Contact us
Advertisement - Login to hide

Notes

Departing runway 17 KONP. Arriving runway 18 KCVO.

Route

KONP +44.50_-124.05 +44.57_-123.66 +44.63_-123.27 KCVO

ID Type Via Altitude Latitude Longitude Leg Dist Tot Dist Heading (true) Name
O KONP APT - 100 ft / 30 m 44.57205˚ -124.05841˚ - 0 nm - -
+44.50_-124.05 DME - 100 ft / 30 m 44.49976˚ -124.05369˚ 4 nm 4 nm 177° / 177° -
+44.57_-123.66 DME - 100 ft / 30 m 44.56542˚ -123.66148˚ 17 nm 21 nm 77° / 77° -
+44.63_-123.27 DME - 100 ft / 30 m 44.63106˚ -123.26927˚ 17 nm 38 nm 77° / 77° -
O KCVO APT - 0 ft / 0 m 44.48739˚ -123.29382˚ 8 nm 47 nm 187° / 187° -

Altitude Profile

Advertisement - Login to hide

KONP

Details ICAO KONP
Name Newport Muni
Region United States
Timezone America/Los_Angeles (UTC-7.0)
Stats Elevation 160 ft / 49 m (AMSL)
Location 44.580776° -124.057500°
Runways 2
Magnetic Variation 15.232° E

METAR

KONP 221835Z AUTO 34012G21KT 10SM SCT007 14/12 A2996 RMK AO2

Decode

TAF

TAF AMD KONP 221755Z 2218/2318 34012G20KT P6SM SCT004 FM222200 34018G25KT P6SM FEW004 FM230300 34009KT 5SM BR BKN004 FM230900 28003KT 1SM BR OVC003

Decode

Departure Runways

ID Width Length Bearing (true) Bearing (mag) Surface Threshold Offset Overrun Length
02 75 ft / 23 m 3,041 ft / 927 m 37.34° 22.11° Asphalt 0 ft / 0 m 0 ft / 0 m
16 151 ft / 46 m 5,438 ft / 1,657 m 177.36° 162.13° Asphalt 0 ft / 0 m 0 ft / 0 m
20 75 ft / 23 m 3,041 ft / 927 m 217.35° 202.12° Asphalt 0 ft / 0 m 400 ft / 122 m
34 151 ft / 46 m 5,438 ft / 1,657 m 357.36° 342.13° Asphalt 299 ft / 91 m 0 ft / 0 m

KCVO

Details ICAO KCVO
Name CORVALLIS MUNI
Region United States
Timezone America/Los_Angeles (UTC-7.0)
Stats Elevation 246 ft / 75 m (AMSL)
Location 44.497677° -123.288546°
Runways 2
Magnetic Variation 15.098° E

METAR

KCVO 221656Z AUTO 36004KT 9SM CLR 19/11 A2993 RMK AO2 SLP135 T01890111

Decode

TAF

Not found

Destination Runways

ID Width Length Bearing (true) Bearing (mag) Surface Threshold Offset Overrun Length
09 75 ft / 23 m 3,540 ft / 1,079 m 112.18° 97.08° Asphalt 0 ft / 0 m 364 ft / 111 m
17 151 ft / 46 m 5,904 ft / 1,799 m 187.16° 172.06° Asphalt 0 ft / 0 m 0 ft / 0 m
27 75 ft / 23 m 3,540 ft / 1,079 m 292.19° 277.09° Asphalt 0 ft / 0 m 0 ft / 0 m
35 151 ft / 46 m 5,904 ft / 1,799 m 7.16° 352.06° Asphalt 0 ft / 0 m 197 ft / 60 m

Approach Navaids

Runway Type Ident Frequency Range Bearing (true) Bearing (mag) Slope Elevation
17 Localiser ICVO 111.90 MHz 18 nm / 33 km 187.01° 171.91° - 246 ft / 75 m (AMSL)
17 Glidescope ICVO 111.90 MHz 10 nm / 19 km 187.16° 172.06° 3.00° 242 ft / 74 m (AMSL)

Popular Alternatives